﻿測定場所 (Monitoring sites),日付 (Measurement date),時間 (Measurement time),線量率 最大値 (max) μGy/h,線量率 最小値 (min) μGy/h,線量率 平均値 (average) μGy/h,
江戸川 (Edogawa),2015-02-08,23:01～24:00,0.0641,0.0572,0.0604,
江戸川 (Edogawa),2015-02-08,22:01～23:00,0.0644,0.0567,0.0606,
江戸川 (Edogawa),2015-02-08,21:01～22:00,0.0637,0.0575,0.0608,
江戸川 (Edogawa),2015-02-08,20:01～21:00,0.0649,0.0553,0.0604,
江戸川 (Edogawa),2015-02-08,19:01～20:00,0.0646,0.0562,0.0604,
江戸川 (Edogawa),2015-02-08,18:01～19:00,0.0647,0.0570,0.0607,
江戸川 (Edogawa),2015-02-08,17:01～18:00,0.0639,0.0564,0.0610,
江戸川 (Edogawa),2015-02-08,16:01～17:00,0.0671,0.0602,0.0633,
江戸川 (Edogawa),2015-02-08,15:01～16:00,0.0758,0.0641,0.0688,
江戸川 (Edogawa),2015-02-08,14:01～15:00,0.0774,0.0688,0.0725,
江戸川 (Edogawa),2015-02-08,13:01～14:00,0.0775,0.0678,0.0728,
江戸川 (Edogawa),2015-02-08,12:01～13:00,0.0729,0.0606,0.0676,
江戸川 (Edogawa),2015-02-08,11:01～12:00,0.0642,0.0587,0.0614,
江戸川 (Edogawa),2015-02-08,10:01～11:00,0.0654,0.0583,0.0608,
江戸川 (Edogawa),2015-02-08,09:01～10:00,0.0644,0.0582,0.0608,
江戸川 (Edogawa),2015-02-08,08:01～09:00,0.0639,0.0568,0.0609,
江戸川 (Edogawa),2015-02-08,07:01～08:00,0.0650,0.0576,0.0611,
江戸川 (Edogawa),2015-02-08,06:01～07:00,0.0637,0.0582,0.0609,
江戸川 (Edogawa),2015-02-08,05:01～06:00,0.0647,0.0560,0.0606,
江戸川 (Edogawa),2015-02-08,04:01～05:00,0.0633,0.0583,0.0609,
江戸川 (Edogawa),2015-02-08,03:01～04:00,0.0644,0.0572,0.0606,
江戸川 (Edogawa),2015-02-08,02:01～03:00,0.0630,0.0579,0.0607,
江戸川 (Edogawa),2015-02-08,01:01～02:00,0.0630,0.0578,0.0606,
江戸川 (Edogawa),2015-02-08,00:01～01:00,0.0637,0.0571,0.0604,
江戸川 (Edogawa),2015-02-07,23:01～24:00,0.0644,0.0577,0.0606,
江戸川 (Edogawa),2015-02-07,22:01～23:00,0.0658,0.0578,0.0613,
江戸川 (Edogawa),2015-02-07,21:01～22:00,0.0665,0.0604,0.0631,
江戸川 (Edogawa),2015-02-07,20:01～21:00,0.0670,0.0590,0.0627,
江戸川 (Edogawa),2015-02-07,19:01～20:00,0.0660,0.0585,0.0623,
江戸川 (Edogawa),2015-02-07,18:01～19:00,0.0660,0.0595,0.0627,
江戸川 (Edogawa),2015-02-07,17:01～18:00,0.0640,0.0577,0.0606,
江戸川 (Edogawa),2015-02-07,16:01～17:00,0.0654,0.0581,0.0612,
江戸川 (Edogawa),2015-02-07,15:01～16:00,0.0641,0.0572,0.0608,
江戸川 (Edogawa),2015-02-07,14:01～15:00,0.0636,0.0569,0.0609,
江戸川 (Edogawa),2015-02-07,13:01～14:00,0.0639,0.0586,0.0612,
江戸川 (Edogawa),2015-02-07,12:01～13:00,0.0637,0.0585,0.0611,
江戸川 (Edogawa),2015-02-07,11:01～12:00,0.0640,0.0577,0.0614,
江戸川 (Edogawa),2015-02-07,10:01～11:00,0.0635,0.0571,0.0607,
江戸川 (Edogawa),2015-02-07,09:01～10:00,0.0638,0.0574,0.0608,
江戸川 (Edogawa),2015-02-07,08:01～09:00,0.0647,0.0563,0.0603,
江戸川 (Edogawa),2015-02-07,07:01～08:00,0.0626,0.0567,0.0599,
江戸川 (Edogawa),2015-02-07,06:01～07:00,0.0643,0.0571,0.0601,
江戸川 (Edogawa),2015-02-07,05:01～06:00,0.0628,0.0578,0.0603,
江戸川 (Edogawa),2015-02-07,04:01～05:00,0.0631,0.0570,0.0599,
江戸川 (Edogawa),2015-02-07,03:01～04:00,0.0623,0.0560,0.0599,
江戸川 (Edogawa),2015-02-07,02:01～03:00,0.0638,0.0579,0.0606,
江戸川 (Edogawa),2015-02-07,01:01～02:00,0.0635,0.0578,0.0604,
江戸川 (Edogawa),2015-02-07,00:01～01:00,0.0634,0.0578,0.0603,
江戸川 (Edogawa),2015-02-06,23:01～24:00,0.0636,0.0570,0.0605,
江戸川 (Edogawa),2015-02-06,22:01～23:00,0.0633,0.0566,0.0597,
江戸川 (Edogawa),2015-02-06,21:01～22:00,0.0633,0.0551,0.0605,
江戸川 (Edogawa),2015-02-06,20:01～21:00,0.0640,0.0574,0.0605,
江戸川 (Edogawa),2015-02-06,19:01～20:00,0.0641,0.0573,0.0606,
江戸川 (Edogawa),2015-02-06,18:01～19:00,0.0639,0.0579,0.0607,
江戸川 (Edogawa),2015-02-06,17:01～18:00,0.0635,0.0567,0.0605,
江戸川 (Edogawa),2015-02-06,16:01～17:00,0.0642,0.0577,0.0608,
江戸川 (Edogawa),2015-02-06,15:01～16:00,0.0664,0.0565,0.0604,
江戸川 (Edogawa),2015-02-06,14:01～15:00,0.0645,0.0578,0.0611,
江戸川 (Edogawa),2015-02-06,13:01～14:00,0.0649,0.0585,0.0614,
江戸川 (Edogawa),2015-02-06,12:01～13:00,0.0652,0.0582,0.0620,
江戸川 (Edogawa),2015-02-06,11:01～12:00,0.0646,0.0581,0.0615,
江戸川 (Edogawa),2015-02-06,10:01～11:00,0.0644,0.0574,0.0604,
江戸川 (Edogawa),2015-02-06,09:01～10:00,0.0628,0.0560,0.0603,
江戸川 (Edogawa),2015-02-06,08:01～09:00,0.0633,0.0570,0.0607,
江戸川 (Edogawa),2015-02-06,07:01～08:00,0.0653,0.0571,0.0610,
江戸川 (Edogawa),2015-02-06,06:01～07:00,0.0636,0.0572,0.0605,
江戸川 (Edogawa),2015-02-06,05:01～06:00,0.0638,0.0577,0.0605,
江戸川 (Edogawa),2015-02-06,04:01～05:00,0.0652,0.0568,0.0606,
江戸川 (Edogawa),2015-02-06,03:01～04:00,0.0637,0.0576,0.0605,
江戸川 (Edogawa),2015-02-06,02:01～03:00,0.0632,0.0569,0.0604,
江戸川 (Edogawa),2015-02-06,01:01～02:00,0.0640,0.0568,0.0606,
江戸川 (Edogawa),2015-02-06,00:01～01:00,0.0649,0.0560,0.0604,
江戸川 (Edogawa),2015-02-05,23:01～24:00,0.0642,0.0564,0.0607,
江戸川 (Edogawa),2015-02-05,22:01～23:00,0.0645,0.0572,0.0606,
江戸川 (Edogawa),2015-02-05,21:01～22:00,0.0655,0.0574,0.0606,
江戸川 (Edogawa),2015-02-05,20:01～21:00,0.0632,0.0573,0.0607,
江戸川 (Edogawa),2015-02-05,19:01～20:00,0.0657,0.0577,0.0619,
江戸川 (Edogawa),2015-02-05,18:01～19:00,0.0692,0.0600,0.0639,
江戸川 (Edogawa),2015-02-05,17:01～18:00,0.0699,0.0611,0.0653,
江戸川 (Edogawa),2015-02-05,16:01～17:00,0.0718,0.0645,0.0679,
江戸川 (Edogawa),2015-02-05,15:01～16:00,0.0690,0.0617,0.0659,
江戸川 (Edogawa),2015-02-05,14:01～15:00,0.0698,0.0616,0.0650,
江戸川 (Edogawa),2015-02-05,13:01～14:00,0.0692,0.0617,0.0655,
江戸川 (Edogawa),2015-02-05,12:01～13:00,0.0709,0.0637,0.0672,
江戸川 (Edogawa),2015-02-05,11:01～12:00,0.0705,0.0635,0.0672,
江戸川 (Edogawa),2015-02-05,10:01～11:00,0.0720,0.0627,0.0666,
江戸川 (Edogawa),2015-02-05,09:01～10:00,0.0697,0.0623,0.0661,
江戸川 (Edogawa),2015-02-05,08:01～09:00,0.0694,0.0627,0.0657,
江戸川 (Edogawa),2015-02-05,07:01～08:00,0.0724,0.0651,0.0679,
江戸川 (Edogawa),2015-02-05,06:01～07:00,0.0691,0.0621,0.0655,
江戸川 (Edogawa),2015-02-05,05:01～06:00,0.0685,0.0625,0.0659,
江戸川 (Edogawa),2015-02-05,04:01～05:00,0.0692,0.0624,0.0656,
江戸川 (Edogawa),2015-02-05,03:01～04:00,0.0709,0.0622,0.0656,
江戸川 (Edogawa),2015-02-05,02:01～03:00,0.0685,0.0622,0.0656,
江戸川 (Edogawa),2015-02-05,01:01～02:00,0.0688,0.0626,0.0657,
江戸川 (Edogawa),2015-02-05,00:01～01:00,0.0678,0.0612,0.0653,
江戸川 (Edogawa),2015-02-04,23:01～24:00,0.0692,0.0621,0.0653,
江戸川 (Edogawa),2015-02-04,22:01～23:00,0.0693,0.0609,0.0650,
江戸川 (Edogawa),2015-02-04,21:01～22:00,0.0679,0.0611,0.0651,
江戸川 (Edogawa),2015-02-04,20:01～21:00,0.0696,0.0621,0.0651,
江戸川 (Edogawa),2015-02-04,19:01～20:00,0.0694,0.0605,0.0655,
江戸川 (Edogawa),2015-02-04,18:01～19:00,0.0694,0.0623,0.0653,
江戸川 (Edogawa),2015-02-04,17:01～18:00,0.0692,0.0616,0.0654,
江戸川 (Edogawa),2015-02-04,16:01～17:00,0.0689,0.0620,0.0657,
江戸川 (Edogawa),2015-02-04,15:01～16:00,0.0690,0.0624,0.0659,
江戸川 (Edogawa),2015-02-04,14:01～15:00,0.0696,0.0629,0.0662,
江戸川 (Edogawa),2015-02-04,13:01～14:00,0.0700,0.0632,0.0664,
江戸川 (Edogawa),2015-02-04,12:01～13:00,0.0701,0.0633,0.0667,
江戸川 (Edogawa),2015-02-04,11:01～12:00,0.0689,0.0608,0.0663,
江戸川 (Edogawa),2015-02-04,10:01～11:00,0.0687,0.0615,0.0658,
江戸川 (Edogawa),2015-02-04,09:01～10:00,0.0695,0.0618,0.0654,
江戸川 (Edogawa),2015-02-04,08:01～09:00,0.0690,0.0618,0.0654,
江戸川 (Edogawa),2015-02-04,07:01～08:00,0.0687,0.0617,0.0653,
江戸川 (Edogawa),2015-02-04,06:01～07:00,0.0685,0.0606,0.0646,
江戸川 (Edogawa),2015-02-04,05:01～06:00,0.0695,0.0622,0.0650,
江戸川 (Edogawa),2015-02-04,04:01～05:00,0.0672,0.0612,0.0648,
江戸川 (Edogawa),2015-02-04,03:01～04:00,0.0696,0.0615,0.0653,
江戸川 (Edogawa),2015-02-04,02:01～03:00,0.0692,0.0623,0.0655,
江戸川 (Edogawa),2015-02-04,01:01～02:00,0.0700,0.0626,0.0653,
江戸川 (Edogawa),2015-02-04,00:01～01:00,0.0691,0.0601,0.0651,
江戸川 (Edogawa),2015-02-03,23:01～24:00,0.0703,0.0617,0.0652,
江戸川 (Edogawa),2015-02-03,22:01～23:00,0.0680,0.0608,0.0651,
江戸川 (Edogawa),2015-02-03,21:01～22:00,0.0686,0.0623,0.0653,
江戸川 (Edogawa),2015-02-03,20:01～21:00,0.0695,0.0614,0.0651,
江戸川 (Edogawa),2015-02-03,19:01～20:00,0.0701,0.0598,0.0649,
江戸川 (Edogawa),2015-02-03,18:01～19:00,0.0691,0.0614,0.0657,
江戸川 (Edogawa),2015-02-03,17:01～18:00,0.0688,0.0614,0.0653,
江戸川 (Edogawa),2015-02-03,16:01～17:00,0.0686,0.0625,0.0659,
江戸川 (Edogawa),2015-02-03,15:01～16:00,0.0695,0.0620,0.0659,
江戸川 (Edogawa),2015-02-03,14:01～15:00,0.0704,0.0626,0.0659,
江戸川 (Edogawa),2015-02-03,13:01～14:00,0.0685,0.0629,0.0659,
江戸川 (Edogawa),2015-02-03,12:01～13:00,0.0697,0.0634,0.0665,
江戸川 (Edogawa),2015-02-03,11:01～12:00,0.0699,0.0626,0.0662,
江戸川 (Edogawa),2015-02-03,10:01～11:00,0.0687,0.0624,0.0658,
江戸川 (Edogawa),2015-02-03,09:01～10:00,0.0696,0.0618,0.0653,
江戸川 (Edogawa),2015-02-03,08:01～09:00,0.0676,0.0615,0.0648,
江戸川 (Edogawa),2015-02-03,07:01～08:00,0.0681,0.0604,0.0651,
江戸川 (Edogawa),2015-02-03,06:01～07:00,0.0692,0.0611,0.0650,
江戸川 (Edogawa),2015-02-03,05:01～06:00,0.0681,0.0611,0.0646,
江戸川 (Edogawa),2015-02-03,04:01～05:00,0.0679,0.0614,0.0651,
江戸川 (Edogawa),2015-02-03,03:01～04:00,0.0682,0.0603,0.0649,
江戸川 (Edogawa),2015-02-03,02:01～03:00,0.0678,0.0607,0.0648,
江戸川 (Edogawa),2015-02-03,01:01～02:00,0.0706,0.0616,0.0647,
江戸川 (Edogawa),2015-02-03,00:01～01:00,0.0695,0.0618,0.0651,
江戸川 (Edogawa),2015-02-02,23:01～24:00,0.0681,0.0614,0.0648,
江戸川 (Edogawa),2015-02-02,22:01～23:00,0.0681,0.0619,0.0649,
江戸川 (Edogawa),2015-02-02,21:01～22:00,0.0687,0.0622,0.0653,
江戸川 (Edogawa),2015-02-02,20:01～21:00,0.0683,0.0617,0.0652,
江戸川 (Edogawa),2015-02-02,19:01～20:00,0.0686,0.0613,0.0654,
江戸川 (Edogawa),2015-02-02,18:01～19:00,0.0706,0.0624,0.0653,
江戸川 (Edogawa),2015-02-02,17:01～18:00,0.0678,0.0611,0.0654,
江戸川 (Edogawa),2015-02-02,16:01～17:00,0.0695,0.0620,0.0655,
江戸川 (Edogawa),2015-02-02,15:01～16:00,0.0698,0.0618,0.0658,
江戸川 (Edogawa),2015-02-02,14:01～15:00,0.0693,0.0618,0.0656,
江戸川 (Edogawa),2015-02-02,13:01～14:00,0.0695,0.0608,0.0654,
江戸川 (Edogawa),2015-02-02,12:01～13:00,0.0700,0.0619,0.0654,
江戸川 (Edogawa),2015-02-02,11:01～12:00,0.0696,0.0616,0.0656,
江戸川 (Edogawa),2015-02-02,10:01～11:00,0.0687,0.0609,0.0653,
江戸川 (Edogawa),2015-02-02,09:01～10:00,0.0687,0.0603,0.0645,
江戸川 (Edogawa),2015-02-02,08:01～09:00,0.0679,0.0609,0.0646,
江戸川 (Edogawa),2015-02-02,07:01～08:00,0.0684,0.0603,0.0643,
江戸川 (Edogawa),2015-02-02,06:01～07:00,0.0680,0.0612,0.0645,
江戸川 (Edogawa),2015-02-02,05:01～06:00,0.0690,0.0615,0.0646,
江戸川 (Edogawa),2015-02-02,04:01～05:00,0.0677,0.0611,0.0644,
江戸川 (Edogawa),2015-02-02,03:01～04:00,0.0682,0.0611,0.0648,
江戸川 (Edogawa),2015-02-02,02:01～03:00,0.0686,0.0618,0.0647,
江戸川 (Edogawa),2015-02-02,01:01～02:00,0.0700,0.0614,0.0648,
江戸川 (Edogawa),2015-02-02,00:01～01:00,0.0688,0.0609,0.0648,
